Regional Weather Roundup
Issued by NWS Bismarck, ND

Home | Current Version | Previous Version | Text Only | Print | Product List | Glossary On
Versions: 1 2 3 4 5 6 7 8 9 10 11 12 13 14 15 16 17 18 19 20 21 22 23 24 25 26 27 28 29 30 31 32 33 34 35 36 37 38 39 40 41 42 43 44 45 46 47 48 49 50
000
ASUS43 KBIS 182010
RWRBIS

NWR BROADCAST TEXT
NATIONAL WEATHER SERVICE BISMARCK ND
200 PM CST WED JAN 18 2017

NOTE: "FAIR" INDICATES FEW OR NO CLOUDS BELOW 12,000 FEET WITH NO
SIGNIFICANT WEATHER AND/OR OBSTRUCTIONS TO VISIBILITY.


CITY           SKY/WX    TMP DP  RH WIND       PRES   REMARKS
WILLISTON      FAIR      37  26  64 SW10      29.58F
MINOT          FAIR      42  27  55 SW13      29.57F
MINOT AFB      FAIR      42  28  58 SW10      29.55F
BISMARCK       FAIR      33  25  72 E3        29.68F
DICKINSON      FAIR      39  26  59 SW17      29.61F
GARRISON         N/A     36  28  73 CALM      29.61F
HETTINGER ARPT FAIR      42  26  53 CALM      29.67F
JAMESTOWN      FAIR      38  28  67 SW10      29.66F
CARRINGTON     FAIR      37  28  70 W8        29.67F
HAZEN            N/A    N/A N/A N/A SW6       29.65F
MANDAN         FAIR      34  27  75 S7        29.67F
RUGBY            N/A     36  28  75 S8        29.61F
STANLEY        FAIR      41  28  60 CALM      29.60F
TIOGA          FAIR      37  30  75 SW17      29.58S
WATFORD CITY   FAIR      41  28  60 CALM      29.59S
$$

CITY           SKY/WX    TMP DP  RH WIND       PRES   REMARKS
GRAND FORKS    FAIR      31  23  72 S10       29.67F
GRAND FORKS AF FAIR      36  28  70 S9        29.66F
DEVILS LAKE    MIX PCPN  37  29  72 SW5       29.65F
FARGO          FAIR      35  26  69 S10       29.71F
CAVALIER         N/A     36  28  75 S5        29.64S
GRAFTON        FAIR      32  28  86 SE9       29.67F
GWINNER        FAIR      34  28  80 SW16      29.70F
ROLLA            N/A    N/A N/A N/A MISG        N/A
$$

CITY           SKY/WX    TMP DP  RH WIND       PRES   REMARKS
ABERDEEN       FAIR      29  20  69 S14       29.76F WCI  18
MOBRIDGE       FAIR      28  20  71 S10       29.69F WCI  19
BUFFALO          N/A     41  24  51 NW7       29.60F
RAPID CITY     FAIR      37  24  59 CALM      29.68F
GLASGOW        FAIR      37  29  72 S7        29.51F
SIDNEY         FAIR      36  25  64 SW22      29.57F
WOLF POINT     FAIR      37  26  64 CALM      29.55F
GLENDIVE       FAIR      34  24  67 S15       29.60F
MILES CITY     FAIR      32  21  64 S13       29.61F
BAKER          FAIR      34  26  72 S6        29.64F
$$

CITY           SKY/WX    TMP DP  RH WIND       PRES   REMARKS
BILLINGS       FAIR      45  21  38 SW25G33   29.64F
GREAT FALLS    FAIR      45  25  45 S15G21    29.57F
REGINA         PTSUNNY   37  32  81 SE9       29.43F
ESTEVAN        MOSUNNY   37  27  65 SW20      29.51F
$$




USA.gov is the U.S. government's official web portal to all federal, state and local government web resources and services.